Location: GMARS
(34.2910°N, 116.3838°W)
Time: 03:15:37
(UTC-08:00)

Envisat - Pass Details

Date: 23 October 2019
Orbit: 764 x 766 km, 98.1° (Epoch: 20 November)

Event Time Altitude Azimuth Distance (km) Brightness Sun altitude
Rises 20:16:29 0° 214° (SW) 3,217 6.6 -28.5°
Reaches altitude 10° 20:20:12 10° 243° (WSW) 2,297 6.1 -29.2°
Maximum altitude 20:22:21 13° 268° (W) 2,121 6.1 -29.7°
Drops below altitude 10° 20:24:30 10° 294° (WNW) 2,303 6.3 -30.1°
Sets 20:28:17 0° 322° (NW) 3,234 6.8 -30.9°
